COSMOS 2251 DEB, 34019

Orbit data source: Space-Track

COSMOS 2251 DEB, 34019 is space debris in LEO originally from a launch on Wed, 16 Jun 1993 UTC launched from the Plesetsk Missile And Space Complex (PKMTR). The debris from Iridium 33, an American commercial communications satellite, has been tracked extensively since its accidental collision with the defunct Russian satellite Cosmos 2251 in 2009. This event, occurring at high speed in low Earth orbit (LEO), generated thousands of pieces of space debris, significantly increasing the risk of further collisions. The Iridium 33 debris cloud has impacted space traffic management and orbital debris mitigation strategies, making it a subject of ongoing study in space situational awareness.

Loading next visibility...
Identifier
34019, 1993-036HE
Orbit
LEO
Country
Flag of CISCIS
Related business
Manufacturer
Unknown
Mission
Spacecraft
Bus & Motor
Unknown
Mass
Unknown
Launch date (UTC)
1993-06-16 (33 years ago)
Launch vehicle
Unknown
Launch site
Plesetsk Missile And Space Complex (PKMTR)
Object type
Payload
Rocket body
Debris
Shape & HBR
Unknown shape, 0.1 m
Radar Cross Section
Medium (>0.1 m² and <1 m²)

Expand to show TLE details & history
Last TLE update: 14 hours ago

TLE from 14 hours ago
0 COSMOS 2251 DEB
1 34019U 93036HE  26257.48022936  .00001279  00000-0  45026-3 0  9993
2 34019  73.9498 263.1948 0060511  18.7365 141.1647 14.34852432914740
Epoch: 2026-09-14T11:31Z
TLE epoch observation values (Epoch: 2026-09-14T11:31:31.816Z)
Latitude
18.87343°
Longitude
-88.76189°
Altitude
811.486 km
Speed
7.432 km/s
True Right ascension
05h 10m 19s
True Declination
18° 46' 09"
Sunlit
Object was in daylight at epoch
Visualization orbit readout
Latitude
Unknown
Longitude
Unknown
Altitude
Unknown
Speed
Unknown
Apparent Right ascension
Unknown
Apparent Declination
Unknown
Sunlit
N/A
Visualization observer readout
Local Sidereal Time
18:28:26
Azimuth
Unknown
Elevation
Unknown
Doppler factor
Unknown
Orbital elements
Apogee altitude
816.463 km
Perigee altitude
729.916 km
Semi-major axis
7,151.326 km
Eccentricity
0.00605
Inclination
73.9498°
RAAN
263.1948°
Arg. of periapsis
18.7365°
True anomaly
141.59697°
Mean anomaly
141.1647°
Eccentric anomaly
141.38109°
Mean motion
3.58892 °/min
Orbital period
100.31 mins
BSTAR
0.00045026
Loading maneuver chart data...
Computing Atmospheric mass density...
Loading historical data...
Loading historical data...
Loading historical data...
Loading historical data...
Loading historical data...
Loading historical data...
Loading historical data...

Documentation

Showing up to 5 results
|